Location: Unspecified
(29.9680°N, 0.0000°E)
Time: 12:52:41
(UTC+00:00)

Explorer 7 - Pass Details

Date: 25 June 2019
Orbit: 485 x 680 km, 50.3° (Epoch: 16 August)

Event Time Altitude Azimuth Distance (km) Brightness Sun altitude
Rises 13:58:47 0° 319° (NW) 2,971 10.8 63.3°
Reaches altitude 10° 14:01:09 10° 324° (NW) 2,078 10.1 62.8°
Maximum altitude 14:05:52 51° 41° (NE) 843 8.2 61.8°
Drops below altitude 10° 14:10:38 10° 117° (ESE) 2,109 9.7 60.8°
Sets 14:13:03 0° 123° (ESE) 3,018 10.3 60.2°
